Wind_Speed
39 39 37 39 36 35 36 38 38 42 50 46 42 41 45 40 31 43 38 39 43 41 48 46 34 41 35 33 31 29 30 30 31 28 33 32 32 30 31 32 32 33 32
43 41 39 43 44 41 39 37 38 35 41 47 51 51 48 44 47 35 32 34 40 42 48 47 47 42 39 37 34 34 32 32 31 34 31 30 31 30 30 30 32 33 32
47 43 46 43 44 46 44 43 41 41 41 40 44 50 51 54 49 33 34 39 34 38 34 42 48 42 43 39 38 35 35 35 35 34 34 35 35 36 36 35 34 33 33
49 51 49 49 40 46 47 48 46 46 46 44 44 46 49 51 50 44 34 32 36 35 36 38 38 48 46 42 40 38 38 37 36 38 36 33 32 35 36 35 33 32 33
47 49 53 53 48 50 48 47 47 49 50 47 45 45 46 45 43 42 43 38 32 30 34 34 39 39 49 46 43 42 39 39 38 40 39 40 36 32 31 33 31 32 33
44 45 48 54 54 55 52 51 51 52 52 52 52 47 48 46 44 41 40 40 33 41 34 35 37 36 37 46 47 44 41 40 38 36 39 38 39 38 37 33 32 30 31
37 43 46 47 51 58 62 59 56 54 49 54 54 58 55 50 47 45 41 41 37 36 43 37 36 36 33 33 40 44 42 41 38 36 36 36 38 37 36 37 33 31 31
39 40 45 49 50 51 52 58 64 63 59 56 53 52 54 60 57 53 48 44 42 39 38 38 36 36 37 38 37 39 43 43 40 37 37 34 34 34 35 34 33 32 31
35 36 43 47 51 53 51 50 52 55 58 61 62 58 56 54 55 58 57 55 51 46 42 41 39 35 36 35 37 38 41 44 43 41 39 36 33 30 29 29 31 31 33
35 34 35 45 50 54 54 52 49 50 52 55 56 60 62 62 59 58 56 54 52 52 49 48 47 44 40 39 35 32 33 35 41 43 41 39 36 33 30 27 27 25 28
35 35 33 34 45 52 55 55 51 50 49 50 51 52 54 55 56 58 60 58 53 50 49 48 47 46 45 43 42 38 34 33 34 36 37 39 39 37 31 26 25 25 25
38 36 35 32 29 41 51 55 55 52 50 49 48 49 51 52 52 53 56 57 60 58 53 50 48 46 44 43 43 42 39 36 36 33 35 32 34 34 32 27 26 26 27
39 38 35 34 29 24 37 47 53 54 52 51 50 48 50 52 52 53 54 55 54 55 58 57 54 51 48 45 42 42 43 41 37 36 33 30 32 31 30 30 28 25 25
36 36 36 34 32 28 22 29 46 54 55 54 53 51 50 52 54 55 55 55 54 53 53 54 55 55 53 50 47 44 41 39 37 35 34 30 30 31 29 28 29 28 25
37 36 33 32 32 30 27 23 20 40 53 57 57 55 54 53 55 57 57 57 56 56 54 54 54 54 53 53 51 48 45 41 39 37 33 30 28 28 27 27 23 28 25
39 40 38 32 30 29 28 27 24 23 26 47 58 60 59 58 58 60 61 60 61 59 58 56 56 55 54 53 52 51 49 46 43 41 37 34 30 27 23 22 25 24 23
40 41 42 32 28 26 27 26 27 28 27 29 33 53 64 65 64 63 64 65 64 64 61 60 60 58 57 56 54 52 51 49 48 45 41 38 34 31 27 23 23 26 23
39 40 44 30 24 25 27 29 28 27 31 30 34 38 42 59 69 70 68 69 68 67 65 64 63 62 61 59 57 54 52 51 50 49 46 43 41 36 32 29 24 21 23
37 38 39 32 24 26 29 30 31 30 30 32 35 39 44 47 49 58 73 75 74 71 69 68 66 66 65 63 60 57 55 53 52 51 50 49 46 42 38 33 29 24 22
36 36 35 35 33 32 32 32 33 34 33 34 35 41 45 51 51 54 59 70 79 77 73 71 70 69 68 64 62 60 58 56 54 52 52 52 51 47 43 39 35 30 23
37 36 35 36 36 39 33 31 32 37 36 36 35 38 41 48 49 50 60 65 69 82 78 74 73 72 70 67 64 62 60 58 57 55 53 51 52 52 49 45 41 37 28
37 38 38 36 35 39 38 31 32 37 39 38 38 39 38 39 41 41 45 58 64 69 82 78 76 74 71 69 67 64 61 60 58 58 56 54 52 52 52 50 46 41 34
37 38 40 38 38 36 39 34 33 38 40 38 39 36 32 32 36 37 39 45 57 62 69 81 79 76 74 71 69 65 63 62 60 58 57 56 55 53 52 50 47 44 39
38 37 38 40 38 36 39 36 36 40 40 38 38 32 27 30 30 36 37 40 48 55 59 70 80 79 76 73 71 68 64 62 62 60 58 58 56 55 53 51 47 45 42
40 39 38 39 40 40 38 39 37 41 41 39 37 32 26 25 29 30 35 37 43 49 54 58 70 79 79 76 73 70 67 64 63 62 61 60 59 56 55 52 49 47 44
45 41 39 39 40 41 38 38 37 40 41 38 36 32 23 20 20 25 27 31 37 43 48 52 57 72 77 78 76 74 71 67 65 63 61 60 60 58 56 54 50 49 45
Wind_Direction
261 254 251 248 251 254 254 240 237 231 234 232 231 234 231 236 243 244 239 233 237 235 225 222 225 239 240 237 239 245 239 237 239 247 245 244 248 248 249 251 253 256 257
259 250 251 250 247 246 246 249 240 235 233 233 232 235 233 233 236 232 237 245 240 241 240 227 229 233 234 236 234 235 238 240 241 239 249 246 252 249 254 253 254 254 256
260 252 252 258 248 245 242 238 244 241 234 232 234 234 234 232 238 243 234 232 241 245 240 240 229 226 235 233 234 233 238 237 240 242 242 246 254 252 254 257 254 255 257
263 260 247 251 239 251 247 243 237 239 241 237 235 234 237 239 241 238 235 244 235 244 243 243 248 234 228 232 231 232 235 236 236 239 243 245 247 248 250 252 252 255 258
269 262 255 249 240 242 239 243 244 240 239 242 239 240 239 240 241 237 233 235 233 239 237 238 240 243 239 228 228 231 234 237 238 237 241 244 246 247 247 248 254 258 258
273 267 262 256 250 242 244 241 239 240 236 242 243 240 240 240 240 238 234 240 239 233 238 234 237 240 240 239 230 230 233 236 240 242 243 242 246 250 250 252 250 256 260
283 266 262 261 256 252 254 251 247 244 239 244 244 244 242 238 240 239 234 233 237 240 240 237 230 230 228 235 241 236 231 233 236 237 241 244 244 246 248 248 253 252 258
296 278 262 256 255 253 249 250 252 251 248 240 239 244 244 243 241 239 239 237 233 233 238 239 240 237 232 230 232 237 236 235 235 235 239 241 245 248 249 248 248 250 254
319 297 270 258 253 250 249 246 245 248 249 250 249 242 242 244 244 243 242 241 241 239 236 238 240 241 241 237 232 235 238 238 237 235 237 240 243 247 252 255 253 253 251
320 322 297 265 252 248 245 244 242 241 243 244 244 244 245 247 247 243 240 239 239 239 239 238 240 240 239 240 239 238 240 240 237 238 239 240 241 244 247 249 253 255 253
323 318 321 297 260 247 243 242 241 238 239 240 239 239 240 241 242 242 242 239 237 235 235 234 234 236 238 240 241 236 239 245 246 238 236 239 243 244 246 250 251 251 252
329 327 322 326 300 257 245 241 240 239 237 238 239 237 238 239 239 239 238 239 240 238 236 234 234 233 232 234 237 241 237 242 244 246 238 237 240 243 242 243 246 245 245
321 326 330 327 323 313 255 244 241 240 239 238 238 238 237 237 238 237 236 236 235 236 236 235 235 236 235 233 231 232 237 240 240 238 241 241 239 239 243 235 243 243 243
322 317 322 330 325 318 317 263 243 240 239 238 237 237 237 237 237 236 235 234 234 234 233 232 232 232 233 233 233 230 229 233 234 231 234 235 238 241 240 243 241 246 247
336 324 310 316 323 319 312 298 287 249 241 240 240 237 236 235 238 237 234 233 232 233 232 232 231 230 230 230 230 230 229 229 230 228 229 233 235 238 241 244 242 245 245
329 328 320 303 307 317 312 306 297 282 267 245 241 241 239 236 235 237 236 233 232 231 232 233 232 232 230 228 228 228 227 228 228 228 228 231 234 237 240 238 239 240 243
327 326 326 303 295 305 313 305 296 290 280 273 258 244 240 239 237 236 236 236 232 231 229 231 233 232 231 230 228 227 227 227 228 228 228 230 234 238 242 243 239 241 252
331 329 332 314 293 299 308 309 300 291 286 281 270 263 252 242 238 235 234 234 234 231 229 230 231 232 231 231 229 227 226 226 226 227 228 228 230 235 240 245 248 245 238
332 333 332 327 299 298 300 303 305 297 292 280 278 266 258 252 246 242 235 231 231 230 228 228 229 230 230 231 230 229 227 226 226 226 227 227 229 232 236 242 248 250 242
332 332 331 326 321 298 294 298 303 305 298 294 280 272 265 253 251 251 243 237 229 227 226 227 227 227 228 229 229 229 229 228 226 225 224 225 228 230 232 238 244 248 249
330 330 330 330 324 323 305 296 303 308 304 302 294 279 273 259 257 250 242 236 233 225 223 224 226 225 225 226 227 228 228 228 228 227 226 224 224 227 230 233 239 244 246
331 328 329 329 329 329 322 307 309 313 311 309 305 292 280 261 258 253 243 235 232 228 222 221 222 222 222 223 223 225 226 227 227 228 227 226 226 225 226 228 232 237 241
331 330 328 329 333 332 332 315 315 319 316 315 312 302 284 263 258 254 247 236 231 228 224 220 219 219 218 219 220 221 223 225 226 227 228 227 226 225 225 224 226 230 235
331 330 328 327 330 332 335 325 320 325 323 323 320 311 288 267 264 254 249 242 231 227 225 221 218 216 216 215 216 218 220 222 224 225 227 228 227 226 225 224 222 224 229
333 331 329 327 327 331 335 334 325 329 328 328 325 317 298 283 273 257 245 242 230 224 221 222 218 216 214 212 212 214 216 219 221 224 225 228 228 226 225 222 220 220 223
337 332 330 328 326 327 332 338 332 330 331 329 328 322 303 282 284 269 255 242 226 221 218 218 219 216 215 212 210 211 212 214 217 220 224 226 228 227 225 222 218 216 217
Height
5540 5542 5544 5546 5549 5552 5554 5557 5560 5565 5569 5574 5578 5583 5586 5589 5594 5597 5600 5603 5606 5609 5614 5618 5622 5625 5629 5633 5636 5641 5646 5648 5652 5654 5657 5661 5664 5666 5668 5670 5672 5674 5674
5528 5530 5531 5534 5537 5540 5544 5547 5550 5553 5558 5562 5567 5571 5575 5578 5583 5587 5591 5593 5595 5600 5604 5608 5611 5615 5619 5624 5628 5631 5636 5641 5644 5647 5650 5653 5657 5659 5662 5663 5665 5667 5667
5517 5519 5521 5523 5526 5529 5532 5536 5540 5544 5546 5549 5553 5558 5562 5566 5571 5577 5581 5584 5585 5588 5593 5597 5600 5605 5610 5614 5618 5623 5627 5632 5636 5638 5641 5644 5648 5651 5653 5655 5657 5659 5660
5505 5506 5509 5512 5513 5517 5520 5524 5528 5532 5537 5540 5542 5545 5549 5553 5558 5565 5571 5574 5577 5579 5582 5587 5592 5595 5599 5604 5609 5614 5618 5623 5627 5630 5633 5636 5638 5641 5644 5647 5649 5651 5652
5491 5493 5495 5497 5500 5504 5507 5511 5516 5520 5525 5528 5532 5536 5539 5542 5546 5552 5559 5564 5567 5571 5574 5577 5582 5586 5591 5594 5599 5605 5609 5614 5618 5621 5624 5626 5629 5632 5635 5639 5641 5643 5645
5478 5479 5482 5484 5486 5490 5494 5498 5502 5507 5511 5516 5520 5525 5529 5533 5536 5540 5546 5552 5557 5563 5567 5570 5574 5577 5581 5586 5590 5595 5600 5604 5609 5613 5616 5619 5621 5624 5627 5631 5633 5636 5638
5464 5466 5467 5470 5473 5476 5479 5483 5488 5493 5497 5503 5508 5512 5517 5522 5526 5530 5536 5542 5547 5552 5558 5562 5566 5569 5572 5577 5581 5586 5590 5595 5600 5603 5606 5610 5614 5616 5620 5623 5625 5628 5630
5450 5449 5451 5454 5457 5461 5464 5468 5472 5477 5483 5489 5494 5499 5504 5509 5514 5520 5525 5530 5536 5541 5547 5552 5556 5560 5565 5568 5572 5577 5581 5585 5590 5595 5598 5602 5605 5609 5611 5613 5616 5619 5622
5438 5434 5433 5435 5438 5443 5448 5452 5457 5462 5468 5475 5480 5486 5491 5496 5501 5506 5512 5519 5525 5530 5535 5540 5546 5551 5556 5561 5565 5568 5572 5577 5581 5585 5589 5594 5597 5600 5603 5605 5608 5611 5614
5429 5422 5417 5416 5418 5424 5430 5436 5441 5447 5452 5459 5464 5471 5476 5482 5487 5493 5499 5505 5512 5519 5525 5530 5536 5541 5546 5551 5556 5560 5563 5568 5572 5576 5581 5586 5590 5593 5596 5599 5602 5604 5607
5421 5414 5406 5400 5399 5403 5410 5418 5425 5432 5438 5443 5450 5455 5461 5467 5473 5479 5485 5492 5499 5505 5512 5518 5525 5530 5537 5542 5548 5552 5557 5560 5563 5568 5573 5578 5582 5587 5590 5592 5595 5598 5600
5414 5407 5399 5392 5386 5387 5392 5400 5408 5416 5423 5429 5435 5441 5445 5451 5459 5465 5471 5478 5484 5491 5498 5505 5512 5518 5525 5532 5537 5543 5548 5552 5556 5559 5564 5570 5575 5579 5583 5586 5589 5592 5595
5408 5401 5394 5387 5382 5377 5378 5384 5392 5399 5407 5414 5420 5426 5431 5437 5444 5450 5456 5463 5470 5477 5484 5491 5499 5506 5513 5520 5527 5533 5538 5544 5549 5553 5558 5561 5566 5571 5576 5579 5583 5586 5589
5400 5394 5389 5383 5377 5374 5372 5372 5376 5382 5390 5398 5404 5411 5417 5423 5429 5435 5442 5449 5456 5463 5471 5477 5485 5493 5501 5508 5515 5521 5528 5534 5540 5545 5550 5554 5558 5563 5567 5572 5576 5579 5582
5396 5388 5382 5378 5373 5369 5367 5366 5366 5368 5374 5381 5388 5395 5401 5408 5412 5419 5428 5434 5441 5449 5458 5464 5471 5479 5487 5494 5502 5510 5517 5524 5530 5536 5542 5547 5552 5556 5561 5566 5569 5573 5576
5389 5382 5375 5371 5368 5365 5362 5359 5359 5360 5361 5365 5370 5377 5385 5391 5395 5402 5410 5419 5426 5434 5443 5451 5458 5466 5473 5481 5489 5497 5505 5513 5521 5528 5534 5539 5545 5549 5554 5559 5563 5568 5571
5382 5375 5368 5361 5359 5358 5356 5354 5352 5350 5351 5352 5355 5358 5364 5371 5378 5384 5392 5400 5410 5418 5429 5436 5444 5451 5459 5468 5476 5484 5493 5501 5510 5517 5523 5530 5536 5542 5547 5552 5557 5561 5565
5375 5368 5360 5353 5352 5350 5348 5346 5345 5343 5340 5340 5341 5342 5345 5349 5354 5362 5371 5379 5389 5400 5412 5420 5427 5435 5444 5453 5463 5471 5480 5488 5497 5505 5513 5521 5528 5534 5540 5545 5550 5555 5559
5369 5362 5355 5349 5346 5344 5341 5338 5335 5332 5330 5328 5325 5326 5327 5330 5335 5339 5346 5355 5366 5379 5391 5400 5408 5418 5428 5438 5448 5458 5467 5475 5484 5493 5501 5510 5519 5526 5532 5538 5544 5549 5553
5363 5357 5350 5345 5340 5335 5332 5329 5326 5321 5318 5314 5311 5308 5307 5311 5315 5318 5322 5328 5340 5354 5367 5378 5387 5399 5412 5422 5433 5443 5453 5462 5471 5480 5489 5498 5507 5516 5524 5530 5537 5543 5548
5357 5350 5344 5337 5332 5326 5321 5318 5315 5310 5304 5300 5295 5291 5288 5287 5291 5294 5297 5305 5314 5328 5343 5355 5368 5381 5393 5406 5418 5428 5438 5449 5458 5468 5477 5486 5496 5505 5514 5522 5529 5536 5542
5351 5344 5337 5331 5324 5317 5311 5306 5303 5297 5291 5285 5279 5272 5268 5268 5269 5271 5275 5281 5291 5303 5318 5332 5346 5361 5375 5389 5401 5413 5423 5433 5444 5454 5465 5475 5484 5494 5503 5513 5521 5528 5535
5345 5338 5330 5323 5316 5310 5303 5297 5293 5286 5279 5272 5264 5256 5251 5252 5253 5254 5258 5263 5271 5282 5293 5309 5324 5340 5356 5371 5385 5397 5408 5418 5430 5441 5452 5463 5473 5483 5493 5503 5512 5520 5527
5339 5331 5324 5316 5309 5302 5296 5289 5283 5276 5268 5260 5251 5244 5239 5239 5240 5241 5243 5247 5254 5264 5275 5288 5303 5319 5336 5352 5367 5381 5392 5404 5416 5428 5439 5450 5461 5472 5482 5493 5503 5511 5519
5332 5325 5317 5309 5302 5295 5287 5280 5273 5266 5258 5250 5242 5234 5229 5227 5226 5226 5229 5233 5238 5248 5260 5271 5284 5300 5315 5333 5349 5363 5377 5390 5403 5415 5427 5438 5450 5461 5472 5483 5494 5503 5511
5326 5318 5310 5303 5295 5287 5280 5273 5265 5258 5251 5242 5234 5227 5222 5219 5218 5218 5219 5221 5226 5235 5246 5258 5269 5284 5299 5314 5331 5346 5361 5376 5390 5403 5414 5426 5438 5450 5461 5473 5484 5495 5504